N428MC KCLL-KEYW

Flight info

Callsign N428MC
Flight time 2h 48m
Altitude 35000
Route DAS LLA REDFN Y280 SRQ CCY KARTR
Aircraft B350/M-VGD/A

Departure

Time 2026-05-05 22:41
Airport Easterwood Field (KCLL)

Arrival

Time 2026-05-06 01:30
Airport Key West International Airport (KEYW)
Time Latitude Longitude Altitude Speed Heading
2026-05-05 22:32 30.59052 -96.35951 298 ft 0 kts 169°
2026-05-05 22:39 30.59049 -96.35951 298 ft 0 kts 192°
2026-05-05 22:39 30.59040 -96.35976 298 ft 5 kts 273°
2026-05-05 22:39 30.59039 -96.36023 300 ft 5 kts 263°
2026-05-05 22:39 30.59030 -96.36082 300 ft 12 kts 259°
2026-05-05 22:40 30.59150 -96.36154 302 ft 31 kts 350°
2026-05-05 22:40 30.59419 -96.36228 304 ft 45 kts 343°
2026-05-05 22:40 30.59619 -96.36275 305 ft 19 kts 352°
2026-05-05 22:40 30.59650 -96.36285 305 ft 0 kts 163°
2026-05-05 22:41 30.59644 -96.36283 305 ft 7 kts 167°
2026-05-05 22:41 30.59249 -96.36190 303 ft 103 kts 169°
2026-05-05 22:41 30.58372 -96.35983 487 ft 145 kts 166°
2026-05-05 22:41 30.57536 -96.35355 1148 ft 152 kts 131°
2026-05-05 22:42 30.57164 -96.34146 1679 ft 166 kts 109°
2026-05-05 22:42 30.56890 -96.32880 2222 ft 171 kts 111°
2026-05-05 22:42 30.56585 -96.31516 2745 ft 179 kts 111°
2026-05-05 22:42 30.56280 -96.30125 3276 ft 184 kts 111°
2026-05-05 22:43 30.55962 -96.28670 3823 ft 188 kts 110°
2026-05-05 22:43 30.55652 -96.27251 4336 ft 191 kts 110°
2026-05-05 22:43 30.55320 -96.25738 4864 ft 194 kts 109°
2026-05-05 22:43 30.54989 -96.24220 5392 ft 199 kts 109°
2026-05-05 22:44 30.54647 -96.22653 5926 ft 202 kts 108°
2026-05-05 22:44 30.54302 -96.21078 6469 ft 204 kts 108°
2026-05-05 22:44 30.53956 -96.19497 7028 ft 204 kts 109°
2026-05-05 22:44 30.53608 -96.17907 7641 ft 205 kts 109°
2026-05-05 22:45 30.53259 -96.16312 8229 ft 205 kts 109°
2026-05-05 22:45 30.52912 -96.14730 8828 ft 204 kts 110°
2026-05-05 22:45 30.52567 -96.13153 9408 ft 202 kts 110°
2026-05-05 22:45 30.52221 -96.11581 9930 ft 205 kts 110°
2026-05-05 22:46 30.51866 -96.09970 10412 ft 208 kts 110°
2026-05-05 22:46 30.51506 -96.08333 10856 ft 212 kts 110°
2026-05-05 22:46 30.51140 -96.06673 11292 ft 215 kts 109°
2026-05-05 22:46 30.50771 -96.04994 11718 ft 219 kts 109°
2026-05-05 22:47 30.50385 -96.03243 12223 ft 226 kts 110°
2026-05-05 22:47 30.50003 -96.01510 12768 ft 230 kts 109°
2026-05-05 22:47 30.49608 -95.99721 13342 ft 230 kts 110°
2026-05-05 22:47 30.49212 -95.97926 13898 ft 232 kts 109°
2026-05-05 22:48 30.48818 -95.96142 14427 ft 233 kts 110°
2026-05-05 22:48 30.48418 -95.94338 14949 ft 234 kts 110°
2026-05-05 22:48 30.48015 -95.92512 15451 ft 236 kts 110°
2026-05-05 22:48 30.47613 -95.90698 15934 ft 237 kts 109°
2026-05-05 22:49 30.47201 -95.88839 16418 ft 238 kts 109°
2026-05-05 22:49 30.46793 -95.87000 16860 ft 241 kts 109°
2026-05-05 22:49 30.46374 -95.85110 17308 ft 243 kts 109°
2026-05-05 22:49 30.45957 -95.83232 17758 ft 243 kts 109°
2026-05-05 22:50 30.45534 -95.81328 18199 ft 244 kts 109°
2026-05-05 22:50 30.45112 -95.79430 18576 ft 247 kts 109°
2026-05-05 22:50 30.44682 -95.77497 18963 ft 249 kts 110°
2026-05-05 22:50 30.44244 -95.75536 19351 ft 253 kts 109°
2026-05-05 22:51 30.43802 -95.73553 19762 ft 256 kts 109°
2026-05-05 22:51 30.43358 -95.71560 20205 ft 257 kts 109°
2026-05-05 22:51 30.42916 -95.69580 20626 ft 258 kts 109°
2026-05-05 22:51 30.42467 -95.67570 21050 ft 259 kts 110°
2026-05-05 22:52 30.42015 -95.65551 21456 ft 260 kts 109°
2026-05-05 22:52 30.41566 -95.63542 21828 ft 262 kts 110°
2026-05-05 22:52 30.41106 -95.61489 22176 ft 265 kts 109°
2026-05-05 22:52 30.40640 -95.59409 22548 ft 266 kts 110°
2026-05-05 22:53 30.40176 -95.57342 22910 ft 267 kts 109°
2026-05-05 22:53 30.39710 -95.55263 23244 ft 270 kts 110°
2026-05-05 22:53 30.39243 -95.53188 23590 ft 271 kts 110°
2026-05-05 22:53 30.38766 -95.51061 23948 ft 271 kts 110°
2026-05-05 22:54 30.38297 -95.48982 24282 ft 271 kts 110°
2026-05-05 22:54 30.37825 -95.46883 24577 ft 273 kts 110°
2026-05-05 22:54 30.37346 -95.44758 24902 ft 274 kts 110°
2026-05-05 22:54 30.36864 -95.42622 25193 ft 275 kts 110°
2026-05-05 22:55 30.36386 -95.40501 25491 ft 276 kts 111°
2026-05-05 22:55 30.35902 -95.38364 25776 ft 277 kts 110°
2026-05-05 22:55 30.35420 -95.36235 26066 ft 277 kts 110°
2026-05-05 22:55 30.34932 -95.34073 26324 ft 278 kts 111°
2026-05-05 22:56 30.34446 -95.31928 26563 ft 279 kts 111°
2026-05-05 22:56 30.33956 -95.29767 26802 ft 279 kts 111°
2026-05-05 22:56 30.33458 -95.27573 27024 ft 280 kts 111°
2026-05-05 22:56 30.32970 -95.25425 27252 ft 280 kts 112°
2026-05-05 22:57 30.32475 -95.23242 27487 ft 280 kts 111°
2026-05-05 22:57 30.31975 -95.21047 27681 ft 281 kts 111°
2026-05-05 22:57 30.31484 -95.18890 27886 ft 282 kts 112°
2026-05-05 22:57 30.30985 -95.16698 28084 ft 283 kts 111°
2026-05-05 22:58 30.30486 -95.14507 28291 ft 283 kts 112°
2026-05-05 22:58 30.29980 -95.12292 28495 ft 283 kts 111°
2026-05-05 22:58 30.29479 -95.10102 28667 ft 284 kts 112°
2026-05-05 22:58 30.28971 -95.07875 28846 ft 285 kts 111°
2026-05-05 22:59 30.28467 -95.05671 29049 ft 284 kts 112°
2026-05-05 22:59 30.27972 -95.03511 29235 ft 284 kts 111°
2026-05-05 22:59 30.27467 -95.01308 29403 ft 285 kts 112°
2026-05-05 22:59 30.26961 -94.99102 29565 ft 285 kts 111°
2026-05-05 23:00 30.25959 -94.94737 29885 ft 285 kts 111°
2026-05-05 23:00 30.25447 -94.92507 30048 ft 285 kts 112°
2026-05-05 23:00 30.24942 -94.90314 30209 ft 284 kts 112°
2026-05-05 23:01 30.24430 -94.88090 30342 ft 285 kts 112°
2026-05-05 23:01 30.23928 -94.85917 30485 ft 286 kts 112°
2026-05-05 23:01 30.23421 -94.83714 30623 ft 286 kts 112°
2026-05-05 23:01 30.22909 -94.81499 30745 ft 287 kts 112°
2026-05-05 23:02 30.22396 -94.79279 30878 ft 287 kts 112°
2026-05-05 23:02 30.21877 -94.77034 31017 ft 287 kts 112°
2026-05-05 23:02 30.21367 -94.74830 31134 ft 287 kts 111°
2026-05-05 23:02 30.20848 -94.72590 31274 ft 287 kts 112°
2026-05-05 23:03 30.20335 -94.70373 31401 ft 287 kts 112°
2026-05-05 23:03 30.19817 -94.68143 31524 ft 286 kts 112°
2026-05-05 23:03 30.19303 -94.65927 31638 ft 287 kts 112°
2026-05-05 23:03 30.18851 -94.63689 31751 ft 290 kts 103°
2026-05-05 23:04 30.18397 -94.61480 31833 ft 285 kts 114°
2026-05-05 23:04 30.17854 -94.59279 31937 ft 286 kts 113°
2026-05-05 23:04 30.17335 -94.57056 32040 ft 286 kts 111°
2026-05-05 23:04 30.16826 -94.54819 32137 ft 286 kts 111°
2026-05-05 23:05 30.16326 -94.52596 32248 ft 286 kts 111°
2026-05-05 23:05 30.15839 -94.50423 32333 ft 286 kts 111°
2026-05-05 23:05 30.15335 -94.48174 32402 ft 288 kts 112°
2026-05-05 23:05 30.14838 -94.45949 32494 ft 288 kts 112°
2026-05-05 23:06 30.14338 -94.43717 32583 ft 288 kts 110°
2026-05-05 23:06 30.13846 -94.41519 32656 ft 289 kts 111°
2026-05-05 23:06 30.13345 -94.39282 32738 ft 289 kts 111°
2026-05-05 23:06 30.12841 -94.37037 32811 ft 289 kts 111°
2026-05-05 23:07 30.12337 -94.34790 32893 ft 290 kts 111°
2026-05-05 23:07 30.11850 -94.32626 32943 ft 289 kts 112°
2026-05-05 23:07 30.11343 -94.30366 33029 ft 288 kts 113°
2026-05-05 23:07 30.10842 -94.28146 33062 ft 289 kts 112°
2026-05-05 23:08 30.10335 -94.25896 33107 ft 289 kts 112°
2026-05-05 23:08 30.09838 -94.23686 33150 ft 290 kts 111°
2026-05-05 23:08 30.09332 -94.21442 33200 ft 290 kts 112°
2026-05-05 23:08 30.08827 -94.19205 33255 ft 290 kts 112°
2026-05-05 23:09 30.08321 -94.16969 33321 ft 289 kts 111°
2026-05-05 23:09 30.07812 -94.14719 33365 ft 290 kts 112°
2026-05-05 23:09 30.07302 -94.12464 33406 ft 290 kts 112°
2026-05-05 23:09 30.06794 -94.10226 33452 ft 291 kts 112°
2026-05-05 23:10 30.06284 -94.07974 33507 ft 291 kts 111°
2026-05-05 23:10 30.05775 -94.05734 33547 ft 291 kts 112°
2026-05-05 23:10 30.05256 -94.03451 33590 ft 292 kts 111°
2026-05-05 23:10 30.04749 -94.01219 33626 ft 292 kts 111°
2026-05-05 23:11 30.04230 -93.98934 33677 ft 292 kts 111°
2026-05-05 23:11 30.03718 -93.96689 33728 ft 292 kts 111°
2026-05-05 23:11 30.03198 -93.94411 33766 ft 293 kts 110°
2026-05-05 23:11 30.02681 -93.92137 33820 ft 293 kts 111°
2026-05-05 23:12 30.02170 -93.89906 33877 ft 292 kts 111°
2026-05-05 23:12 30.01647 -93.87615 33931 ft 292 kts 110°
2026-05-05 23:12 30.01134 -93.85372 33965 ft 293 kts 111°
2026-05-05 23:12 30.00611 -93.83088 34007 ft 293 kts 110°
2026-05-05 23:13 30.00094 -93.80830 34049 ft 293 kts 110°
2026-05-05 23:13 29.99571 -93.78551 34100 ft 293 kts 110°
2026-05-05 23:13 29.99056 -93.76303 34158 ft 293 kts 110°
2026-05-05 23:13 29.98532 -93.74022 34200 ft 293 kts 111°
2026-05-05 23:14 29.98008 -93.71748 34251 ft 293 kts 110°
2026-05-05 23:14 29.97492 -93.69502 34291 ft 294 kts 110°
2026-05-05 23:14 29.96964 -93.67210 34335 ft 294 kts 110°
2026-05-05 23:14 29.96444 -93.64954 34390 ft 293 kts 110°
2026-05-05 23:15 29.95917 -93.62670 34433 ft 294 kts 110°
2026-05-05 23:15 29.95397 -93.60419 34474 ft 294 kts 110°
2026-05-05 23:15 29.94873 -93.58150 34528 ft 293 kts 110°
2026-05-05 23:15 29.94345 -93.55868 34579 ft 293 kts 110°
2026-05-05 23:16 29.93822 -93.53606 34616 ft 294 kts 110°
2026-05-05 23:16 29.93307 -93.51385 34649 ft 294 kts 110°
2026-05-05 23:16 29.92780 -93.49114 34682 ft 295 kts 110°
2026-05-05 23:16 29.92245 -93.46809 34719 ft 295 kts 109°
2026-05-05 23:17 29.91720 -93.44545 34768 ft 295 kts 110°
2026-05-05 23:17 29.91209 -93.42345 34822 ft 294 kts 109°
2026-05-05 23:17 29.90675 -93.40051 34857 ft 295 kts 110°
2026-05-05 23:17 29.90145 -93.37775 34874 ft 297 kts 109°
2026-05-05 23:18 29.89611 -93.35486 34881 ft 299 kts 109°
2026-05-05 23:18 29.89083 -93.33220 34864 ft 301 kts 109°
2026-05-05 23:18 29.88000 -93.28583 34859 ft 303 kts 110°
2026-05-05 23:19 29.86906 -93.23909 34864 ft 305 kts 109°
2026-05-05 23:19 29.85800 -93.19188 34862 ft 308 kts 109°
2026-05-05 23:20 29.84683 -93.14429 34869 ft 311 kts 110°
2026-05-05 23:20 29.83547 -93.09601 34867 ft 315 kts 109°
2026-05-05 23:21 29.82399 -93.04727 34865 ft 319 kts 109°
2026-05-05 23:21 29.81229 -92.99769 34872 ft 323 kts 109°
2026-05-05 23:22 29.80043 -92.94756 34873 ft 327 kts 109°
2026-05-05 23:22 29.78845 -92.89696 34875 ft 332 kts 109°
2026-05-05 23:23 29.77621 -92.84539 34877 ft 337 kts 109°
2026-05-05 23:23 29.76374 -92.79296 34882 ft 341 kts 109°
2026-05-05 23:24 29.75120 -92.74030 34880 ft 346 kts 109°
2026-05-05 23:24 29.73841 -92.68674 34881 ft 351 kts 109°
2026-05-05 23:25 29.72541 -92.63236 34885 ft 355 kts 108°
2026-05-05 23:25 29.71224 -92.57739 34882 ft 360 kts 109°
2026-05-05 23:26 29.69897 -92.52212 34892 ft 364 kts 108°
2026-05-05 23:26 29.68543 -92.46582 34889 ft 368 kts 109°
2026-05-05 23:27 29.67176 -92.40914 34888 ft 372 kts 108°
2026-05-05 23:27 29.65656 -92.35228 34890 ft 375 kts 108°
2026-05-05 23:28 29.64642 -92.29418 34877 ft 377 kts 105°
2026-05-05 23:28 29.63470 -92.23563 34884 ft 379 kts 105°
2026-05-05 23:29 29.62266 -92.17722 34892 ft 380 kts 105°
2026-05-05 23:29 29.61078 -92.11990 34897 ft 382 kts 106°
2026-05-05 23:30 29.59827 -92.05972 34901 ft 383 kts 105°
2026-05-05 23:30 29.58586 -92.00015 34904 ft 385 kts 106°
2026-05-05 23:31 29.57350 -91.94096 34908 ft 386 kts 106°
2026-05-05 23:31 29.56097 -91.88113 34907 ft 386 kts 106°
2026-05-05 23:32 29.54845 -91.82152 34907 ft 386 kts 105°
2026-05-05 23:32 29.53584 -91.76154 34905 ft 387 kts 105°
2026-05-05 23:33 29.52327 -91.70197 34905 ft 387 kts 105°
2026-05-05 23:33 29.51063 -91.64214 34903 ft 387 kts 105°
2026-05-05 23:34 29.49789 -91.58204 34912 ft 388 kts 105°
2026-05-05 23:34 29.48521 -91.52229 34910 ft 388 kts 105°
2026-05-05 23:35 29.47247 -91.46249 34914 ft 389 kts 105°
2026-05-05 23:35 29.45956 -91.40198 34917 ft 389 kts 105°
2026-05-05 23:36 29.44669 -91.34178 34912 ft 390 kts 105°
2026-05-05 23:36 29.43381 -91.28172 34905 ft 389 kts 105°
2026-05-05 23:37 29.42098 -91.22200 34905 ft 388 kts 106°
2026-05-05 23:37 29.40807 -91.16209 34911 ft 388 kts 105°
2026-05-05 23:38 29.39513 -91.10216 34914 ft 387 kts 105°
2026-05-05 23:38 29.38221 -91.04245 34917 ft 387 kts 105°
2026-05-05 23:39 29.36937 -90.98326 34920 ft 387 kts 105°
2026-05-05 23:39 29.35639 -90.92354 34922 ft 387 kts 105°
2026-05-05 23:40 29.34346 -90.86418 34928 ft 387 kts 105°
2026-05-05 23:40 29.33043 -90.80455 34933 ft 387 kts 105°
2026-05-05 23:41 29.31737 -90.74489 34937 ft 387 kts 105°
2026-05-05 23:41 29.30423 -90.68501 34940 ft 388 kts 105°
2026-05-05 23:42 29.29113 -90.62545 34940 ft 388 kts 105°
2026-05-05 23:42 29.27790 -90.56543 34943 ft 389 kts 104°
2026-05-05 23:43 29.26468 -90.50555 34948 ft 390 kts 105°
2026-05-05 23:43 29.25145 -90.44579 34947 ft 390 kts 104°
2026-05-05 23:44 29.23812 -90.38573 34956 ft 391 kts 105°
2026-05-05 23:44 29.22469 -90.32532 34945 ft 392 kts 105°
2026-05-05 23:45 29.21130 -90.26527 34953 ft 391 kts 105°
2026-05-05 23:45 29.19789 -90.20524 34955 ft 390 kts 105°
2026-05-05 23:46 29.18457 -90.14578 34952 ft 390 kts 105°
2026-05-05 23:46 29.17006 -90.08659 34950 ft 389 kts 108°
2026-05-05 23:47 29.15912 -90.02656 34949 ft 388 kts 102°
2026-05-05 23:47 29.14726 -89.96669 34946 ft 389 kts 103°
2026-05-05 23:48 29.13511 -89.90697 34952 ft 389 kts 103°
2026-05-05 23:48 29.12282 -89.84687 34956 ft 390 kts 103°
2026-05-05 23:49 29.11053 -89.78693 34958 ft 390 kts 103°
2026-05-05 23:49 29.09818 -89.72681 34958 ft 391 kts 103°
2026-05-05 23:50 29.08581 -89.66682 34962 ft 391 kts 103°
2026-05-05 23:50 29.07329 -89.60618 34959 ft 392 kts 103°
2026-05-05 23:51 29.06081 -89.54589 34965 ft 393 kts 103°
2026-05-05 23:51 29.04819 -89.48509 34969 ft 394 kts 103°
2026-05-05 23:52 29.03562 -89.42464 34969 ft 395 kts 103°
2026-05-05 23:52 29.02293 -89.36378 34972 ft 395 kts 103°
2026-05-05 23:53 29.01019 -89.30282 34956 ft 395 kts 103°
2026-05-05 23:53 28.99749 -89.24217 34960 ft 395 kts 103°
2026-05-05 23:54 28.98468 -89.18116 34959 ft 394 kts 103°
2026-05-05 23:54 28.97197 -89.12083 34963 ft 394 kts 103°
2026-05-05 23:55 28.95913 -89.05995 34965 ft 394 kts 103°
2026-05-05 23:55 28.94634 -88.99951 34968 ft 394 kts 103°
2026-05-05 23:56 28.93350 -88.93893 34970 ft 394 kts 103°
2026-05-05 23:56 28.92062 -88.87828 34971 ft 395 kts 103°
2026-05-05 23:57 28.90765 -88.81740 34975 ft 395 kts 102°
2026-05-05 23:57 28.89471 -88.75681 34974 ft 395 kts 102°
2026-05-05 23:58 28.88205 -88.69642 34968 ft 394 kts 97°
2026-05-05 23:58 28.87598 -88.66608 34977 ft 393 kts 111°
2026-05-05 23:58 28.86607 -88.63694 34984 ft 393 kts 110°
2026-05-05 23:59 28.84884 -88.57800 34981 ft 394 kts 107°
2026-05-05 23:59 28.83234 -88.51886 34980 ft 394 kts 107°
2026-05-06 00:00 28.81593 -88.45980 34982 ft 395 kts 107°
2026-05-06 00:00 28.79931 -88.40005 34981 ft 395 kts 107°
2026-05-06 00:01 28.78277 -88.34074 34981 ft 396 kts 107°
2026-05-06 00:01 28.76616 -88.28128 34973 ft 395 kts 107°
2026-05-06 00:02 28.74949 -88.22169 34967 ft 394 kts 107°
2026-05-06 00:02 28.73285 -88.16232 34972 ft 394 kts 107°
2026-05-06 00:03 28.71624 -88.10321 34984 ft 393 kts 107°
2026-05-06 00:03 28.70069 -88.04421 34994 ft 391 kts 110°
2026-05-06 00:04 28.68321 -87.98556 34984 ft 392 kts 107°
2026-05-06 00:04 28.66654 -87.92690 34985 ft 392 kts 107°
2026-05-06 00:05 28.64148 -87.83842 34992 ft 392 kts 107°
2026-05-06 00:06 28.62467 -87.77919 34996 ft 393 kts 107°
2026-05-06 00:06 28.60794 -87.72034 34997 ft 393 kts 106°
2026-05-06 00:07 28.59105 -87.66104 34923 ft 396 kts 106°
2026-05-06 00:07 28.58263 -87.63151 34805 ft 400 kts 106°
2026-05-06 00:07 28.57400 -87.60129 34678 ft 403 kts 106°
2026-05-06 00:07 28.56542 -87.57125 34553 ft 404 kts 106°
2026-05-06 00:08 28.55667 -87.54068 34424 ft 405 kts 106°
2026-05-06 00:08 28.54801 -87.51043 34297 ft 405 kts 106°
2026-05-06 00:08 28.53937 -87.48030 34157 ft 405 kts 106°
2026-05-06 00:08 28.53070 -87.45006 33941 ft 405 kts 106°
2026-05-06 00:09 28.52192 -87.41949 33733 ft 405 kts 106°
2026-05-06 00:09 28.51326 -87.38934 33527 ft 404 kts 106°
2026-05-06 00:09 28.50454 -87.35902 33319 ft 403 kts 106°
2026-05-06 00:09 28.49587 -87.32891 33095 ft 403 kts 107°
2026-05-06 00:10 28.48718 -87.29878 33001 ft 396 kts 107°
2026-05-06 00:10 28.47872 -87.26946 32988 ft 385 kts 107°
2026-05-06 00:10 28.47044 -87.24077 32994 ft 382 kts 107°
2026-05-06 00:11 28.45402 -87.18396 32999 ft 381 kts 107°
2026-05-06 00:11 28.43745 -87.12672 33006 ft 380 kts 107°
2026-05-06 00:12 28.42082 -87.06941 33012 ft 385 kts 107°
2026-05-06 00:12 28.40401 -87.01155 33010 ft 390 kts 107°
2026-05-06 00:13 28.38695 -86.95296 33011 ft 394 kts 107°
2026-05-06 00:13 28.36965 -86.89365 33012 ft 398 kts 107°
2026-05-06 00:14 28.35376 -86.83924 33010 ft 401 kts 106°
2026-05-06 00:14 28.33613 -86.77902 33014 ft 404 kts 106°
2026-05-06 00:15 28.31842 -86.71860 33016 ft 406 kts 106°
2026-05-06 00:15 28.30140 -86.65788 33025 ft 408 kts 108°
2026-05-06 00:16 28.28289 -86.59660 33022 ft 410 kts 106°
2026-05-06 00:16 28.26507 -86.53580 33018 ft 407 kts 106°
2026-05-06 00:17 28.24737 -86.47539 33022 ft 404 kts 106°
2026-05-06 00:17 28.22963 -86.41490 33025 ft 402 kts 106°
2026-05-06 00:18 28.21213 -86.35535 33028 ft 400 kts 105°
2026-05-06 00:18 28.19459 -86.29574 33014 ft 397 kts 106°
2026-05-06 00:19 28.17710 -86.23644 33018 ft 395 kts 106°
2026-05-06 00:19 28.15980 -86.17788 33020 ft 392 kts 106°
2026-05-06 00:20 28.14260 -86.11974 33024 ft 390 kts 106°
2026-05-06 00:20 28.12546 -86.06194 33025 ft 389 kts 105°
2026-05-06 00:21 28.10829 -86.00414 33030 ft 388 kts 105°
2026-05-06 00:21 28.09160 -85.94801 33032 ft 386 kts 106°
2026-05-06 00:22 28.07401 -85.88897 33031 ft 385 kts 106°
2026-05-06 00:22 28.05689 -85.83163 33032 ft 385 kts 106°
2026-05-06 00:23 28.03977 -85.77437 33033 ft 384 kts 105°
2026-05-06 00:23 28.02274 -85.71751 33032 ft 384 kts 106°
2026-05-06 00:24 28.00554 -85.66019 33027 ft 384 kts 105°
2026-05-06 00:24 27.98854 -85.60361 33022 ft 383 kts 106°
2026-05-06 00:25 27.97138 -85.54662 33018 ft 383 kts 105°
2026-05-06 00:25 27.95421 -85.48967 33018 ft 384 kts 105°
2026-05-06 00:26 27.93689 -85.43237 33020 ft 384 kts 105°
2026-05-06 00:26 27.91974 -85.37566 33020 ft 384 kts 105°
2026-05-06 00:27 27.90250 -85.31878 33008 ft 383 kts 106°
2026-05-06 00:27 27.88540 -85.26223 32995 ft 381 kts 104°
2026-05-06 00:28 27.87499 -85.20399 33002 ft 375 kts 96°
2026-05-06 00:28 27.86547 -85.14680 33001 ft 374 kts 96°
2026-05-06 00:29 27.85582 -85.08926 33001 ft 373 kts 96°
2026-05-06 00:29 27.84617 -85.03185 33002 ft 372 kts 96°
2026-05-06 00:30 27.83654 -84.97472 33004 ft 371 kts 96°
2026-05-06 00:30 27.82691 -84.91780 33004 ft 370 kts 96°
2026-05-06 00:31 27.81721 -84.86057 33007 ft 370 kts 96°
2026-05-06 00:31 27.80762 -84.80411 33009 ft 370 kts 96°
2026-05-06 00:32 27.79788 -84.74694 33008 ft 370 kts 96°
2026-05-06 00:32 27.78823 -84.69041 33009 ft 370 kts 96°
2026-05-06 00:33 27.77848 -84.63352 33010 ft 370 kts 96°
2026-05-06 00:33 27.76870 -84.57653 33012 ft 371 kts 96°
2026-05-06 00:34 27.75890 -84.51960 33012 ft 371 kts 96°
2026-05-06 00:34 27.74902 -84.46235 33014 ft 371 kts 96°
2026-05-06 00:35 27.73918 -84.40543 33014 ft 372 kts 96°
2026-05-06 00:35 27.72925 -84.34817 33012 ft 373 kts 96°
2026-05-06 00:36 27.71929 -84.29092 33003 ft 372 kts 96°
2026-05-06 00:36 27.70942 -84.23433 33003 ft 371 kts 96°
2026-05-06 00:37 27.69944 -84.17722 33005 ft 371 kts 96°
2026-05-06 00:37 27.68945 -84.12014 33004 ft 371 kts 96°
2026-05-06 00:38 27.67946 -84.06331 33004 ft 371 kts 96°
2026-05-06 00:38 27.66938 -84.00606 33006 ft 371 kts 96°
2026-05-06 00:39 27.65936 -83.94926 33006 ft 371 kts 96°
2026-05-06 00:39 27.64928 -83.89231 33011 ft 371 kts 96°
2026-05-06 00:40 27.63914 -83.83515 33006 ft 372 kts 96°
2026-05-06 00:40 27.62902 -83.77825 33009 ft 372 kts 95°
2026-05-06 00:41 27.61888 -83.72137 33014 ft 372 kts 96°
2026-05-06 00:41 27.60866 -83.66423 33011 ft 373 kts 95°
2026-05-06 00:42 27.59838 -83.60677 33014 ft 374 kts 95°
2026-05-06 00:42 27.58812 -83.54965 33013 ft 374 kts 95°
2026-05-06 00:43 27.57779 -83.49236 33018 ft 374 kts 95°
2026-05-06 00:43 27.56741 -83.43484 33016 ft 375 kts 96°
2026-05-06 00:44 27.55698 -83.37720 33016 ft 376 kts 95°
2026-05-06 00:44 27.54668 -83.32044 33004 ft 376 kts 96°
2026-05-06 00:45 27.53621 -83.26288 33005 ft 375 kts 96°
2026-05-06 00:45 27.52590 -83.20608 33001 ft 374 kts 94°
2026-05-06 00:46 27.51585 -83.14877 33010 ft 374 kts 97°
2026-05-06 00:46 27.50498 -83.09166 33005 ft 373 kts 96°
2026-05-06 00:47 27.49451 -83.03496 33007 ft 373 kts 96°
2026-05-06 00:47 27.48397 -82.97772 33009 ft 373 kts 96°
2026-05-06 00:48 27.47351 -82.92102 33013 ft 373 kts 95°
2026-05-06 00:48 27.46295 -82.86391 33012 ft 372 kts 95°
2026-05-06 00:49 27.45237 -82.80682 33014 ft 373 kts 95°
2026-05-06 00:49 27.44186 -82.75030 33015 ft 373 kts 96°
2026-05-06 00:50 27.43121 -82.69314 33019 ft 373 kts 95°
2026-05-06 00:50 27.42068 -82.63672 33020 ft 374 kts 96°
2026-05-06 00:51 27.40726 -82.58030 33020 ft 381 kts 115°
2026-05-06 00:51 27.39131 -82.55656 33034 ft 382 kts 137°
2026-05-06 00:51 27.36968 -82.53970 33043 ft 377 kts 154°
2026-05-06 00:52 27.32371 -82.51086 33027 ft 379 kts 154°
2026-05-06 00:52 27.27779 -82.48181 33026 ft 380 kts 154°
2026-05-06 00:53 27.23177 -82.45269 33027 ft 381 kts 154°
2026-05-06 00:53 27.18539 -82.42338 33027 ft 382 kts 154°
2026-05-06 00:54 27.13923 -82.39422 33023 ft 383 kts 154°
2026-05-06 00:54 27.09270 -82.36487 33026 ft 384 kts 153°
2026-05-06 00:55 27.04635 -82.33565 33020 ft 384 kts 154°
2026-05-06 00:55 26.99949 -82.30614 33015 ft 384 kts 154°
2026-05-06 00:56 26.95320 -82.27702 33013 ft 384 kts 154°
2026-05-06 00:56 26.90685 -82.24789 33018 ft 384 kts 154°
2026-05-06 00:57 26.86048 -82.21877 33008 ft 383 kts 154°
2026-05-06 00:57 26.81432 -82.18981 33007 ft 382 kts 154°
2026-05-06 00:58 26.76777 -82.16065 33009 ft 381 kts 154°
2026-05-06 00:58 26.72173 -82.13181 33009 ft 381 kts 154°
2026-05-06 00:59 26.67550 -82.10289 33011 ft 380 kts 154°
2026-05-06 00:59 26.62948 -82.07413 33014 ft 380 kts 154°
2026-05-06 00:59 26.60637 -82.05971 32877 ft 382 kts 154°
2026-05-06 01:00 26.58339 -82.04537 32478 ft 382 kts 154°
2026-05-06 01:00 26.56009 -82.03084 32094 ft 382 kts 154°
2026-05-06 01:00 26.53685 -82.01636 31710 ft 382 kts 154°
2026-05-06 01:00 26.51361 -82.00187 31326 ft 382 kts 154°
2026-05-06 01:01 26.49030 -81.98734 30945 ft 383 kts 154°
2026-05-06 01:01 26.46711 -81.97290 30568 ft 384 kts 154°
2026-05-06 01:01 26.44374 -81.95835 30190 ft 384 kts 154°
2026-05-06 01:01 26.42072 -81.94403 29814 ft 383 kts 153°
2026-05-06 01:02 26.39741 -81.92954 29430 ft 381 kts 153°
2026-05-06 01:02 26.37428 -81.91515 29049 ft 379 kts 153°
2026-05-06 01:02 26.35161 -81.90106 28671 ft 378 kts 153°
2026-05-06 01:02 26.32867 -81.88681 28287 ft 376 kts 153°
2026-05-06 01:03 26.30582 -81.87262 27902 ft 374 kts 153°
2026-05-06 01:03 26.28316 -81.85856 27523 ft 372 kts 154°
2026-05-06 01:03 26.26063 -81.84460 27146 ft 371 kts 154°
2026-05-06 01:03 26.23838 -81.83080 26774 ft 369 kts 154°
2026-05-06 01:04 26.21593 -81.81690 26395 ft 367 kts 154°
2026-05-06 01:04 26.19377 -81.80317 26018 ft 366 kts 153°
2026-05-06 01:04 26.17146 -81.78936 25640 ft 364 kts 154°
2026-05-06 01:04 26.14901 -81.77655 25260 ft 359 kts 161°
2026-05-06 01:05 26.12590 -81.76700 24898 ft 357 kts 164°
2026-05-06 01:05 26.10243 -81.75748 24525 ft 356 kts 163°
2026-05-06 01:05 26.07913 -81.74802 24150 ft 354 kts 163°
2026-05-06 01:05 26.05622 -81.73875 23782 ft 353 kts 163°
2026-05-06 01:06 26.03328 -81.72945 23420 ft 351 kts 163°
2026-05-06 01:06 26.01031 -81.72015 23055 ft 350 kts 163°
2026-05-06 01:06 25.98761 -81.71096 22698 ft 349 kts 163°
2026-05-06 01:06 25.96492 -81.70177 22340 ft 348 kts 163°
2026-05-06 01:07 25.94210 -81.69255 22005 ft 347 kts 163°
2026-05-06 01:07 25.91961 -81.68346 21678 ft 345 kts 163°
2026-05-06 01:07 25.89706 -81.67435 21343 ft 344 kts 163°
2026-05-06 01:07 25.87447 -81.66522 20998 ft 343 kts 163°
2026-05-06 01:08 25.85230 -81.65627 20658 ft 341 kts 163°
2026-05-06 01:08 25.82986 -81.64722 20318 ft 340 kts 162°
2026-05-06 01:08 25.80766 -81.63826 19981 ft 338 kts 163°
2026-05-06 01:08 25.78573 -81.62942 19634 ft 337 kts 163°
2026-05-06 01:09 25.76372 -81.62054 19292 ft 336 kts 163°
2026-05-06 01:09 25.74178 -81.61170 18948 ft 335 kts 163°
2026-05-06 01:09 25.71978 -81.60284 18603 ft 333 kts 162°
2026-05-06 01:09 25.69829 -81.59419 18262 ft 332 kts 162°
2026-05-06 01:10 25.67667 -81.58549 17916 ft 331 kts 162°
2026-05-06 01:10 25.65488 -81.57673 17570 ft 330 kts 162°
2026-05-06 01:10 25.63357 -81.56815 17220 ft 328 kts 162°
2026-05-06 01:10 25.61189 -81.55942 16863 ft 327 kts 162°
2026-05-06 01:11 25.59061 -81.55087 16514 ft 326 kts 162°
2026-05-06 01:11 25.56916 -81.54225 16161 ft 326 kts 162°
2026-05-06 01:11 25.54818 -81.53383 15816 ft 325 kts 162°
2026-05-06 01:11 25.52681 -81.52525 15465 ft 324 kts 161°
2026-05-06 01:12 25.50546 -81.51719 15103 ft 321 kts 169°
2026-05-06 01:12 25.48401 -81.51685 15037 ft 303 kts 193°
2026-05-06 01:12 25.46368 -81.52165 15012 ft 292 kts 197°
2026-05-06 01:12 25.44421 -81.52663 15010 ft 282 kts 197°
2026-05-06 01:13 25.42534 -81.53155 15006 ft 275 kts 197°
2026-05-06 01:13 25.40690 -81.53639 14975 ft 270 kts 197°
2026-05-06 01:13 25.38838 -81.54128 14635 ft 279 kts 198°
2026-05-06 01:13 25.36925 -81.54633 14292 ft 286 kts 197°
2026-05-06 01:14 25.32983 -81.55672 13616 ft 295 kts 197°
2026-05-06 01:14 25.30993 -81.56196 13275 ft 298 kts 197°
2026-05-06 01:14 25.28964 -81.56731 12932 ft 300 kts 197°
2026-05-06 01:15 25.26930 -81.57267 12590 ft 301 kts 197°
2026-05-06 01:15 25.24892 -81.57800 12240 ft 301 kts 198°
2026-05-06 01:15 25.23017 -81.58753 11901 ft 296 kts 213°
2026-05-06 01:15 25.21219 -81.59876 11551 ft 295 kts 213°
2026-05-06 01:16 25.19452 -81.61004 11207 ft 295 kts 213°
2026-05-06 01:16 25.17669 -81.62150 10855 ft 294 kts 213°
2026-05-06 01:16 25.15914 -81.63282 10506 ft 293 kts 214°
2026-05-06 01:16 25.14154 -81.64420 10155 ft 292 kts 213°
2026-05-06 01:17 25.12408 -81.65550 9804 ft 291 kts 213°
2026-05-06 01:17 25.10680 -81.66667 9455 ft 290 kts 213°
2026-05-06 01:17 25.08932 -81.67797 9101 ft 289 kts 213°
2026-05-06 01:17 25.07204 -81.68915 8746 ft 288 kts 213°
2026-05-06 01:18 25.05483 -81.70026 8391 ft 288 kts 213°
2026-05-06 01:18 25.03741 -81.71153 8033 ft 287 kts 213°
2026-05-06 01:18 25.02030 -81.72261 7674 ft 286 kts 212°
2026-05-06 01:18 25.00302 -81.73378 7314 ft 285 kts 212°
2026-05-06 01:19 24.98601 -81.74476 6959 ft 284 kts 212°
2026-05-06 01:19 24.96888 -81.75581 6601 ft 284 kts 212°
2026-05-06 01:19 24.95202 -81.76668 6248 ft 283 kts 212°
2026-05-06 01:19 24.93520 -81.77753 5893 ft 283 kts 212°
2026-05-06 01:20 24.91838 -81.78838 5519 ft 274 kts 212°
2026-05-06 01:20 24.90215 -81.79884 5149 ft 267 kts 211°
2026-05-06 01:20 24.88615 -81.80915 4775 ft 262 kts 211°
2026-05-06 01:20 24.87049 -81.81923 4403 ft 258 kts 211°
2026-05-06 01:21 24.85513 -81.82912 4057 ft 253 kts 211°
2026-05-06 01:21 24.84039 -81.83861 3973 ft 239 kts 211°
2026-05-06 01:21 24.82641 -81.84759 3988 ft 225 kts 211°
2026-05-06 01:21 24.81326 -81.85606 3980 ft 214 kts 211°
2026-05-06 01:22 24.80074 -81.86410 3984 ft 204 kts 212°
2026-05-06 01:22 24.78867 -81.87187 3983 ft 196 kts 212°
2026-05-06 01:22 24.77699 -81.87939 3760 ft 202 kts 211°
2026-05-06 01:22 24.76437 -81.88751 3407 ft 213 kts 211°
2026-05-06 01:23 24.75139 -81.89584 3080 ft 221 kts 211°
2026-05-06 01:23 24.73801 -81.90441 3012 ft 223 kts 211°
2026-05-06 01:23 24.72451 -81.91308 2997 ft 223 kts 211°
2026-05-06 01:23 24.71117 -81.92165 2992 ft 223 kts 211°
2026-05-06 01:24 24.69766 -81.93032 2991 ft 222 kts 211°
2026-05-06 01:24 24.68434 -81.93887 2990 ft 221 kts 211°
2026-05-06 01:24 24.67112 -81.94735 2986 ft 221 kts 211°
2026-05-06 01:24 24.65782 -81.95588 2991 ft 220 kts 211°
2026-05-06 01:25 24.64447 -81.96442 2993 ft 220 kts 210°
2026-05-06 01:25 24.63001 -81.96867 2991 ft 220 kts 182°
2026-05-06 01:25 24.61462 -81.96861 2996 ft 219 kts 180°
2026-05-06 01:25 24.59928 -81.96843 2994 ft 219 kts 179°
2026-05-06 01:26 24.58408 -81.96823 2993 ft 219 kts 179°
2026-05-06 01:26 24.56919 -81.96550 2991 ft 218 kts 154°
2026-05-06 01:26 24.55811 -81.95427 2990 ft 216 kts 119°
2026-05-06 01:26 24.55469 -81.93864 2996 ft 212 kts 90°
2026-05-06 01:27 24.55456 -81.92257 2995 ft 213 kts 88°
2026-05-06 01:27 24.55466 -81.90617 2991 ft 212 kts 88°
2026-05-06 01:27 24.55479 -81.89047 2921 ft 204 kts 88°
2026-05-06 01:27 24.55494 -81.87464 2553 ft 210 kts 88°
2026-05-06 01:28 24.55511 -81.85857 2204 ft 214 kts 88°
2026-05-06 01:28 24.55525 -81.84209 1852 ft 217 kts 88°
2026-05-06 01:28 24.55540 -81.82600 1556 ft 206 kts 88°
2026-05-06 01:28 24.55531 -81.81084 1184 ft 194 kts 95°
2026-05-06 01:29 24.55545 -81.79680 785 ft 168 kts 86°
2026-05-06 01:29 24.55587 -81.78508 439 ft 149 kts 88°
2026-05-06 01:29 24.55597 -81.77433 151 ft 135 kts 88°
2026-05-06 01:29 24.55606 -81.76479 8 ft 113 kts 88°
2026-05-06 01:30 24.55607 -81.75711 5 ft 80 kts 90°
2026-05-06 01:30 24.55613 -81.75347 5 ft 19 kts 93°
2026-05-06 01:30 24.55584 -81.75234 5 ft 22 kts 169°
2026-05-06 01:30 24.55529 -81.75354 5 ft 21 kts 275°
2026-05-06 01:31 24.55532 -81.75472 5 ft 12 kts 272°
2026-05-06 01:31 24.55531 -81.75627 5 ft 19 kts 268°
2026-05-06 01:31 24.55498 -81.75654 5 ft 9 kts 89°
2026-05-06 01:31 24.55457 -81.75629 5 ft 10 kts 218°
2026-05-06 01:32 24.55423 -81.75669 5 ft 0 kts 275°
2026-05-06 01:32 24.55423 -81.75671 5 ft 0 kts 278°
2026-05-06 01:32 24.55423 -81.75704 5 ft 9 kts 267°
2026-05-06 01:33 24.55423 -81.75710 5 ft 0 kts 295°
2026-05-06 01:33 24.55427 -81.75713 5 ft 2 kts 326°
2026-05-06 01:33 24.55461 -81.75745 5 ft 10 kts 43°
2026-05-06 01:33 24.55477 -81.75727 5 ft 0 kts
2026-05-06 01:34 24.55481 -81.75728 5 ft 0 kts